| time (UTC) | temp F | wind direction | speed knots | gust knots | rain 1hr in | rain 24hr in | rain mn in | humidity % | barometer mb |
| 20260503193110 | 0 | 221 | 0.0 | 0.0 | 0.00 | 0.00 | 0.00 | 1013.9 | |
| 20260503191553 | 0 | 173 | 0.0 | 0.0 | 0.00 | 0.00 | 0.00 | 1013.9 | |
| 20260503190059 | 0 | 165 | 0.0 | 0.0 | 0.00 | 0.00 | 0.00 | 1013.8 | |
| 20260503184543 | 0 | 212 | 0.0 | 0.0 | 0.00 | 0.00 | 0.00 | 1013.9 | |
| 20260503183054 | 0 | 176 | 0.0 | 0.0 | 0.00 | 0.00 | 0.00 | 1013.7 | |
| 20260503181534 | 0 | 183 | 0.0 | 0.0 | 0.00 | 0.00 | 0.00 | 1013.5 | |
| 20260503180038 | 0 | 209 | 0.0 | 0.0 | 0.00 | 0.00 | 0.00 | 1013.6 | |
| 20260503174524 | 0 | 202 | 0.0 | 0.0 | 0.00 | 0.00 | 0.00 | 1013.7 | |
| 20260503173020 | 0 | 240 | 0.0 | 0.0 | 0.00 | 0.00 | 0.00 | 1013.6 | |
| 20260503171530 | 0 | 203 | 0.0 | 0.0 | 0.00 | 0.00 | 0.00 | 1013.5 | |
| 20260503081544 | 0 | 192 | 0.0 | 0.0 | 0.00 | 0.00 | 0.00 | 1011.9 | |
| 20260503071520 | 0 | 92 | 0.0 | 0.0 | 0.00 | 0.00 | 0.00 | 1011.8 | |
| 20260503054513 | 0 | 48 | 0.0 | 0.0 | 0.00 | 0.00 | 0.00 | 1012.0 | |
| 20260503053013 | 0 | 65 | 0.0 | 0.0 | 0.00 | 0.00 | 0.00 | 1012.1 | |
| 20260503051512 | 0 | 9 | 0.0 | 0.0 | 0.00 | 0.00 | 0.00 | 1012.2 | |
| 20260503050013 | 0 | 80 | 0.0 | 0.0 | 0.00 | 0.00 | 0.00 | 1012.2 | |
| 20260503044511 | 0 | 69 | 0.0 | 0.0 | 0.00 | 0.00 | 0.00 | 1012.1 | |
| 20260503043009 | 0 | 123 | 0.0 | 0.0 | 0.00 | 0.00 | 0.00 | 1011.9 | |
| 20260503041508 | 0 | 105 | 0.0 | 0.0 | 0.00 | 0.00 | 0.00 | 1011.8 | |
| 20260503040008 | 0 | 38 | 0.0 | 0.0 | 0.00 | 0.00 | 0.00 | 1011.5 | |
| 20260503034508 | 0 | 56 | 0.0 | 0.0 | 0.00 | 0.00 | 0.00 | 1011.2 | |
| 20260503033006 | 0 | 88 | 0.0 | 0.0 | 0.00 | 0.00 | 0.00 | 1011.0 | |
| 20260503031504 | 0 | 65 | 0.0 | 0.0 | 0.00 | 0.00 | 0.00 | 1010.8 | |
| 20260503030059 | 0 | 52 | 0.0 | 0.0 | 0.00 | 0.00 | 0.00 | 1010.7 | |
| 20260503024603 | 0 | 83 | 0.0 | 0.0 | 0.00 | 0.00 | 0.00 | 1010.7 | |
| 20260503023050 | 0 | 71 | 0.0 | 0.0 | 0.00 | 0.00 | 0.00 | 1010.6 | |
| 20260503021550 | 0 | 93 | 0.0 | 0.0 | 0.00 | 0.00 | 0.00 | 1010.6 | |
| 20260503020050 | 0 | 107 | 0.0 | 0.0 | 0.00 | 0.00 | 0.00 | 1010.6 | |
| 20260503014605 | 0 | 38 | 0.0 | 0.0 | 0.00 | 0.00 | 0.00 | 1010.7 | |
| 20260503013036 | 0 | 108 | 0.0 | 0.0 | 0.00 | 0.00 | 0.00 | 1010.7 | |
| 20260503011531 | 0 | 132 | 0.0 | 0.0 | 0.00 | 0.00 | 0.00 | 1010.8 | |
| 20260503010024 | 0 | 157 | 0.0 | 0.0 | 0.00 | 0.00 | 0.00 | 1010.8 | |
| 20260503004526 | 0 | 207 | 0.0 | 0.0 | 0.00 | 0.00 | 0.00 | 1010.9 | |
| 20260503003015 | 0 | 195 | 0.0 | 0.0 | 0.00 | 0.00 | 0.00 | 1010.9 | |
| 20260503001510 | 0 | 198 | 0.0 | 0.0 | 0.00 | 0.00 | 0.00 | 1011.0 | |
| 20260503000005 | 0 | 214 | 0.0 | 0.0 | 0.00 | 0.00 | 0.00 | 1011.1 | |
| 20260502234503 | 0 | 198 | 0.0 | 0.0 | 0.00 | 0.00 | 0.00 | 1011.3 | |
| 20260502233056 | 0 | 248 | 0.0 | 0.0 | 0.00 | 0.00 | 0.00 | 1011.4 | |
| 20260502231553 | 0 | 228 | 0.0 | 0.0 | 0.00 | 0.00 | 0.00 | 1011.6 | |
| 20260502230048 | 0 | 220 | 0.0 | 0.0 | 0.00 | 0.00 | 0.00 | 1011.9 | |
| 20260502224553 | 0 | 232 | 0.0 | 0.0 | 0.00 | 0.00 | 0.00 | 1012.2 | |
| 20260502223040 | 0 | 246 | 0.0 | 0.0 | 0.00 | 0.00 | 0.00 | 1012.4 | |
| 20260502221534 | 0 | 217 | 0.0 | 0.0 | 0.00 | 0.00 | 0.00 | 1012.8 | |
| 20260502220029 | 0 | 261 | 0.0 | 0.0 | 0.00 | 0.00 | 0.00 | 1013.1 | |
| 20260502214524 | 0 | 252 | 0.0 | 0.0 | 0.00 | 0.00 | 0.00 | 1013.3 | |
| 20260502213019 | 0 | 266 | 0.0 | 0.0 | 0.00 | 0.00 | 0.00 | 1013.4 | |
| 20260502211529 | 0 | 265 | 0.0 | 0.0 | 0.00 | 0.00 | 0.00 | 1013.4 | |
| 20260502210015 | 0 | 255 | 0.0 | 0.0 | 0.00 | 0.00 | 0.00 | 1013.5 | |
| 20260502204506 | 0 | 210 | 0.0 | 0.0 | 0.00 | 0.00 | 0.00 | 1013.7 | |
| 20260502203001 | 0 | 193 | 0.0 | 0.0 | 0.00 | 0.00 | 0.00 | 1014.1 | |
| 20260502201602 | 0 | 0.0 | 0.0 | 0.00 | 0.00 | 0.00 | 1014.2 | ||
| 20260502200053 | 0 | 0.0 | 0.0 | 0.00 | 0.00 | 0.00 | 1014.5 | ||
| 20260502194600 | 0 | 0.0 | 0.0 | 0.00 | 0.00 | 0.00 | 1014.6 |